SKY118 EHAM-EKCH

Flight info

Callsign SKY118
Flight time 1h 3m
Altitude 22000
Route ANDIK N873 JUIST DCT DOSUR P729 TUDLO
Aircraft B738/M-SDE2E3FGHIRWXY/LB1

Departure

Time 2026-05-04 18:45
Airport Amsterdam Airport Schiphol (EHAM)

Arrival

Time 2026-05-04 19:48
Airport Copenhagen Kastrup Airport (EKCH)
Time Latitude Longitude Altitude Speed Heading
2026-05-04 18:00 52.32048 4.74492 -2 ft 0 kts 93°
2026-05-04 18:36 52.32048 4.74494 -2 ft 1 kts 89°
2026-05-04 18:36 52.32053 4.74520 -2 ft 6 kts 73°
2026-05-04 18:36 52.32080 4.74564 -2 ft 7 kts 34°
2026-05-04 18:36 52.32094 4.74561 -2 ft 3 kts 326°
2026-05-04 18:37 52.32088 4.74510 -2 ft 8 kts 249°
2026-05-04 18:37 52.32062 4.74399 -2 ft 11 kts 249°
2026-05-04 18:37 52.32030 4.74244 -2 ft 18 kts 270°
2026-05-04 18:37 52.32037 4.74024 -3 ft 21 kts 273°
2026-05-04 18:38 52.32045 4.73810 -2 ft 3 kts 273°
2026-05-04 18:38 52.32045 4.73809 -2 ft 1 kts 273°
2026-05-04 18:38 52.32047 4.73757 -2 ft 10 kts 273°
2026-05-04 18:39 52.32052 4.73596 -2 ft 16 kts 273°
2026-05-04 18:39 52.32062 4.73431 -2 ft 17 kts 287°
2026-05-04 18:39 52.32138 4.73287 -2 ft 18 kts 319°
2026-05-04 18:39 52.32214 4.73179 -2 ft 15 kts 319°
2026-05-04 18:40 52.32304 4.73054 -2 ft 15 kts 319°
2026-05-04 18:40 52.32388 4.72936 -2 ft 17 kts 319°
2026-05-04 18:40 52.32466 4.72826 -2 ft 15 kts 319°
2026-05-04 18:40 52.32531 4.72734 -2 ft 12 kts 319°
2026-05-04 18:41 52.32600 4.72637 -2 ft 14 kts 319°
2026-05-04 18:41 52.32675 4.72525 -2 ft 15 kts 313°
2026-05-04 18:41 52.32749 4.72390 -2 ft 17 kts 311°
2026-05-04 18:41 52.32827 4.72247 -2 ft 18 kts 311°
2026-05-04 18:42 52.32905 4.72102 -2 ft 17 kts 311°
2026-05-04 18:42 52.32980 4.71961 -2 ft 16 kts 303°
2026-05-04 18:42 52.32987 4.71782 -2 ft 15 kts 266°
2026-05-04 18:42 52.33024 4.71624 -2 ft 16 kts 311°
2026-05-04 18:43 52.33093 4.71498 -2 ft 15 kts 311°
2026-05-04 18:43 52.33163 4.71365 -2 ft 16 kts 311°
2026-05-04 18:43 52.33231 4.71241 -2 ft 14 kts 311°
2026-05-04 18:43 52.33301 4.71111 -2 ft 16 kts 311°
2026-05-04 18:44 52.33381 4.70969 -3 ft 18 kts 325°
2026-05-04 18:44 52.33426 4.70945 -3 ft 6 kts
2026-05-04 18:44 52.33536 4.70953 -2 ft 32 kts
2026-05-04 18:44 52.34000 4.70996 -3 ft 101 kts
2026-05-04 18:45 52.34900 4.71070 15 ft 154 kts
2026-05-04 18:45 52.36045 4.71170 474 ft 172 kts
2026-05-04 18:45 52.37224 4.71301 1327 ft 173 kts
2026-05-04 18:45 52.38501 4.71448 1759 ft 197 kts
2026-05-04 18:46 52.39958 4.71581 1965 ft 222 kts
2026-05-04 18:46 52.41550 4.71713 2414 ft 234 kts
2026-05-04 18:46 52.43194 4.71847 2951 ft 245 kts
2026-05-04 18:46 52.44919 4.72006 3761 ft 249 kts
2026-05-04 18:47 52.46658 4.72175 4648 ft 252 kts
2026-05-04 18:47 52.48422 4.72347 5478 ft 256 kts
2026-05-04 18:47 52.50215 4.72521 6287 ft 260 kts
2026-05-04 18:47 52.52042 4.72701 7050 ft 265 kts
2026-05-04 18:48 52.53837 4.73438 7786 ft 272 kts 30°
2026-05-04 18:48 52.55140 4.75679 8535 ft 278 kts 65°
2026-05-04 18:48 52.55690 4.78694 9294 ft 282 kts 77°
2026-05-04 18:48 52.56147 4.81867 10010 ft 287 kts 76°
2026-05-04 18:49 52.56713 4.85018 10767 ft 289 kts 72°
2026-05-04 18:49 52.57344 4.88177 11459 ft 294 kts 71°
2026-05-04 18:49 52.57978 4.91390 12198 ft 296 kts 72°
2026-05-04 18:49 52.58620 4.94621 12909 ft 300 kts 68°
2026-05-04 18:50 52.59800 4.97419 13582 ft 300 kts 41°
2026-05-04 18:50 52.61345 4.99733 14278 ft 303 kts 44°
2026-05-04 18:50 52.62660 5.02504 14841 ft 311 kts 57°
2026-05-04 18:50 52.63776 5.05553 15531 ft 312 kts 58°
2026-05-04 18:51 52.64973 5.08559 16146 ft 316 kts 52°
2026-05-04 18:51 52.66320 5.11389 16766 ft 319 kts 49°
2026-05-04 18:51 52.67744 5.14221 17328 ft 327 kts 49°
2026-05-04 18:51 52.69232 5.17211 17462 ft 347 kts 50°
2026-05-04 18:52 52.70780 5.20401 17622 ft 366 kts 51°
2026-05-04 18:52 52.72388 5.23780 17761 ft 384 kts 51°
2026-05-04 18:52 52.74067 5.27331 17884 ft 401 kts 51°
2026-05-04 18:52 52.75816 5.31042 18009 ft 417 kts 51°
2026-05-04 18:53 52.77632 5.34892 18158 ft 431 kts 51°
2026-05-04 18:53 52.79491 5.38836 18495 ft 438 kts 51°
2026-05-04 18:53 52.81342 5.42767 18979 ft 440 kts 51°
2026-05-04 18:53 52.83226 5.46771 19456 ft 443 kts 51°
2026-05-04 18:54 52.85123 5.50810 19899 ft 446 kts 51°
2026-05-04 18:54 52.87029 5.54876 20323 ft 450 kts 51°
2026-05-04 18:54 52.88956 5.58992 20731 ft 454 kts 51°
2026-05-04 18:54 52.90894 5.63139 21118 ft 458 kts 51°
2026-05-04 18:55 52.92848 5.67328 21518 ft 461 kts 51°
2026-05-04 18:55 52.96807 5.75838 22011 ft 472 kts 51°
2026-05-04 18:55 52.98826 5.80188 22011 ft 477 kts 51°
2026-05-04 18:56 53.00816 5.84486 22012 ft 476 kts 51°
2026-05-04 18:56 53.02824 5.88829 22006 ft 472 kts 51°
2026-05-04 18:56 53.04822 5.93157 22018 ft 473 kts 51°
2026-05-04 18:56 53.06826 5.97505 22025 ft 475 kts 51°
2026-05-04 18:57 53.08837 6.01872 22018 ft 476 kts 51°
2026-05-04 18:57 53.10848 6.06250 22016 ft 477 kts 51°
2026-05-04 18:57 53.12867 6.10649 22013 ft 478 kts 51°
2026-05-04 18:57 53.14878 6.15036 22010 ft 477 kts 51°
2026-05-04 18:58 53.16893 6.19436 21998 ft 477 kts 51°
2026-05-04 18:58 53.18872 6.23766 22000 ft 476 kts 51°
2026-05-04 18:58 53.20878 6.28161 21997 ft 476 kts 51°
2026-05-04 18:58 53.22879 6.32555 21998 ft 475 kts 51°
2026-05-04 18:59 53.24874 6.36945 21993 ft 475 kts 51°
2026-05-04 18:59 53.26869 6.41342 21995 ft 475 kts 51°
2026-05-04 18:59 53.28864 6.45746 21996 ft 475 kts 51°
2026-05-04 18:59 53.30855 6.50147 21999 ft 475 kts 51°
2026-05-04 19:00 53.32850 6.54567 22001 ft 476 kts 51°
2026-05-04 19:00 53.34861 6.58970 22007 ft 476 kts 50°
2026-05-04 19:00 53.37023 6.63146 22006 ft 474 kts 43°
2026-05-04 19:00 53.39418 6.66821 22017 ft 472 kts 37°
2026-05-04 19:01 53.41974 6.70284 22018 ft 472 kts 36°
2026-05-04 19:01 53.44536 6.73732 22016 ft 473 kts 36°
2026-05-04 19:01 53.47077 6.77265 22020 ft 475 kts 38°
2026-05-04 19:01 53.49559 6.80926 22014 ft 476 kts 39°
2026-05-04 19:02 53.51987 6.84721 22002 ft 477 kts 41°
2026-05-04 19:02 53.54370 6.88597 22017 ft 477 kts 42°
2026-05-04 19:02 53.56724 6.92532 22018 ft 478 kts 42°
2026-05-04 19:02 53.59069 6.96506 22026 ft 478 kts 43°
2026-05-04 19:03 53.61409 7.00488 22021 ft 478 kts 43°
2026-05-04 19:03 53.63719 7.04414 22007 ft 478 kts 43°
2026-05-04 19:03 53.66063 7.08390 22018 ft 478 kts 42°
2026-05-04 19:03 53.68411 7.12364 22016 ft 478 kts 42°
2026-05-04 19:04 53.70763 7.16340 22019 ft 478 kts 42°
2026-05-04 19:04 53.73112 7.20312 22017 ft 478 kts 42°
2026-05-04 19:04 53.75463 7.24293 22016 ft 479 kts 42°
2026-05-04 19:04 53.77813 7.28278 22013 ft 479 kts 42°
2026-05-04 19:05 53.80161 7.32268 22018 ft 479 kts 42°
2026-05-04 19:05 53.82512 7.36270 22020 ft 479 kts 42°
2026-05-04 19:05 53.84836 7.40234 22020 ft 480 kts 42°
2026-05-04 19:05 53.87187 7.44251 22017 ft 480 kts 42°
2026-05-04 19:06 53.89535 7.48270 22018 ft 480 kts 43°
2026-05-04 19:06 53.91883 7.52296 22023 ft 480 kts 43°
2026-05-04 19:06 53.94230 7.56328 22025 ft 480 kts 43°
2026-05-04 19:06 53.96580 7.60371 22022 ft 480 kts 43°
2026-05-04 19:07 53.98927 7.64416 22025 ft 481 kts 43°
2026-05-04 19:07 54.01270 7.68462 22025 ft 481 kts 43°
2026-05-04 19:07 54.03583 7.72461 22026 ft 481 kts 43°
2026-05-04 19:07 54.05929 7.76525 22019 ft 481 kts 43°
2026-05-04 19:08 54.08269 7.80587 22026 ft 481 kts 43°
2026-05-04 19:08 54.10611 7.84657 22024 ft 481 kts 43°
2026-05-04 19:08 54.12949 7.88728 22023 ft 481 kts 43°
2026-05-04 19:08 54.15288 7.92808 22025 ft 481 kts 43°
2026-05-04 19:09 54.17623 7.96887 22023 ft 480 kts 43°
2026-05-04 19:09 54.19954 8.00967 22024 ft 480 kts 43°
2026-05-04 19:09 54.22252 8.04996 22024 ft 480 kts 43°
2026-05-04 19:09 54.24580 8.09084 22021 ft 479 kts 43°
2026-05-04 19:10 54.26904 8.13174 22016 ft 479 kts 43°
2026-05-04 19:10 54.29225 8.17264 22015 ft 479 kts 43°
2026-05-04 19:10 54.31544 8.21358 22016 ft 479 kts 43°
2026-05-04 19:10 54.33860 8.25453 22014 ft 479 kts 43°
2026-05-04 19:11 54.36179 8.29561 22014 ft 479 kts 43°
2026-05-04 19:11 54.38494 8.33668 22016 ft 479 kts 43°
2026-05-04 19:11 54.40802 8.37771 22011 ft 479 kts 44°
2026-05-04 19:11 54.43118 8.41894 22013 ft 478 kts 44°
2026-05-04 19:12 54.45424 8.46008 22014 ft 478 kts 44°
2026-05-04 19:12 54.49995 8.54183 22011 ft 477 kts 44°
2026-05-04 19:12 54.52294 8.58306 22014 ft 476 kts 44°
2026-05-04 19:13 54.54592 8.62433 22011 ft 476 kts 44°
2026-05-04 19:13 54.56881 8.66553 22015 ft 476 kts 44°
2026-05-04 19:13 54.59172 8.70681 22017 ft 475 kts 44°
2026-05-04 19:13 54.61453 8.74799 22008 ft 475 kts 44°
2026-05-04 19:14 54.63703 8.78870 22008 ft 475 kts 44°
2026-05-04 19:14 54.65979 8.82993 22010 ft 474 kts 44°
2026-05-04 19:14 54.68255 8.87124 22005 ft 474 kts 44°
2026-05-04 19:14 54.70525 8.91250 22005 ft 474 kts 44°
2026-05-04 19:15 54.72797 8.95389 22005 ft 474 kts 44°
2026-05-04 19:15 54.75061 8.99519 22004 ft 473 kts 44°
2026-05-04 19:15 54.77327 9.03660 21997 ft 473 kts 44°
2026-05-04 19:15 54.79586 9.07797 21994 ft 473 kts 45°
2026-05-04 19:16 54.81845 9.11940 21991 ft 472 kts 45°
2026-05-04 19:16 54.84101 9.16084 21993 ft 472 kts 45°
2026-05-04 19:16 54.86321 9.20174 21992 ft 472 kts 45°
2026-05-04 19:16 54.88538 9.24379 21984 ft 472 kts 46°
2026-05-04 19:17 54.90712 9.28653 21991 ft 472 kts 47°
2026-05-04 19:17 54.92861 9.32963 21988 ft 472 kts 47°
2026-05-04 19:17 54.95008 9.37286 21986 ft 472 kts 47°
2026-05-04 19:17 54.97163 9.41605 21995 ft 472 kts 47°
2026-05-04 19:18 54.99322 9.45911 21986 ft 472 kts 47°
2026-05-04 19:18 55.01484 9.50207 21990 ft 472 kts 47°
2026-05-04 19:18 55.03648 9.54508 22001 ft 472 kts 47°
2026-05-04 19:18 55.05810 9.58812 21990 ft 472 kts 47°
2026-05-04 19:19 55.07962 9.63111 21962 ft 467 kts 47°
2026-05-04 19:19 55.09882 9.67503 21445 ft 460 kts 59°
2026-05-04 19:19 55.11019 9.72723 20673 ft 462 kts 78°
2026-05-04 19:19 55.11458 9.78218 20340 ft 451 kts 84°
2026-05-04 19:20 55.11776 9.83672 20233 ft 456 kts 82°
2026-05-04 19:20 55.12627 9.89026 20039 ft 463 kts 59°
2026-05-04 19:20 55.14644 9.93339 20132 ft 456 kts 41°
2026-05-04 19:20 55.16710 9.97563 20031 ft 464 kts 63°
2026-05-04 19:21 55.17715 10.02871 20353 ft 462 kts 81°
2026-05-04 19:21 55.18024 10.08526 20128 ft 468 kts 84°
2026-05-04 19:21 55.18701 10.13993 20260 ft 463 kts 74°
2026-05-04 19:21 55.19580 10.19374 20038 ft 458 kts 72°
2026-05-04 19:22 55.20543 10.24700 19994 ft 460 kts 71°
2026-05-04 19:22 55.21536 10.30054 19984 ft 464 kts 71°
2026-05-04 19:22 55.22521 10.35446 19974 ft 465 kts 71°
2026-05-04 19:22 55.23479 10.40830 19952 ft 458 kts 72°
2026-05-04 19:23 55.24387 10.46057 19953 ft 438 kts 72°
2026-05-04 19:23 55.25245 10.51060 19950 ft 420 kts 72°
2026-05-04 19:23 55.26067 10.55862 19952 ft 403 kts 72°
2026-05-04 19:23 55.26861 10.60493 19865 ft 390 kts 72°
2026-05-04 19:24 55.27623 10.64942 19613 ft 384 kts 72°
2026-05-04 19:24 55.28390 10.69409 19195 ft 382 kts 72°
2026-05-04 19:24 55.29156 10.73878 18756 ft 382 kts 72°
2026-05-04 19:24 55.29919 10.78336 18360 ft 380 kts 72°
2026-05-04 19:25 55.30676 10.82771 17948 ft 378 kts 72°
2026-05-04 19:25 55.31426 10.87176 17530 ft 376 kts 72°
2026-05-04 19:25 55.32171 10.91559 17123 ft 374 kts 72°
2026-05-04 19:25 55.32908 10.95915 16697 ft 372 kts 72°
2026-05-04 19:26 55.33638 11.00260 16293 ft 370 kts 72°
2026-05-04 19:26 55.34350 11.04532 15896 ft 368 kts 73°
2026-05-04 19:26 55.35063 11.08829 15508 ft 366 kts 73°
2026-05-04 19:26 55.35772 11.13115 15121 ft 364 kts 73°
2026-05-04 19:27 55.36477 11.17386 14738 ft 363 kts 73°
2026-05-04 19:27 55.37176 11.21626 14369 ft 361 kts 73°
2026-05-04 19:27 55.37871 11.25852 13999 ft 359 kts 73°
2026-05-04 19:27 55.38562 11.30058 13619 ft 357 kts 73°
2026-05-04 19:28 55.39248 11.34248 13238 ft 355 kts 73°
2026-05-04 19:28 55.39927 11.38404 12878 ft 352 kts 73°
2026-05-04 19:28 55.40590 11.42478 12506 ft 350 kts 73°
2026-05-04 19:28 55.41258 11.46584 12143 ft 348 kts 73°
2026-05-04 19:29 55.41916 11.50634 11962 ft 339 kts 73°
2026-05-04 19:29 55.42554 11.54576 11812 ft 330 kts 73°
2026-05-04 19:29 55.43231 11.58384 11673 ft 321 kts 66°
2026-05-04 19:29 55.44286 11.61735 11530 ft 305 kts 52°
2026-05-04 19:30 55.45551 11.64659 11063 ft 300 kts 48°
2026-05-04 19:30 55.46853 11.67498 10540 ft 295 kts 48°
2026-05-04 19:30 55.48118 11.70316 9983 ft 292 kts 49°
2026-05-04 19:30 55.49330 11.73112 9388 ft 289 kts 50°
2026-05-04 19:31 55.50528 11.75950 8775 ft 286 kts 51°
2026-05-04 19:31 55.51699 11.78767 8219 ft 283 kts 51°
2026-05-04 19:31 55.52830 11.81523 8037 ft 276 kts 51°
2026-05-04 19:31 55.53956 11.84281 7980 ft 276 kts 52°
2026-05-04 19:32 55.55071 11.87022 7964 ft 274 kts 52°
2026-05-04 19:32 55.56182 11.89762 7967 ft 275 kts 52°
2026-05-04 19:32 55.57295 11.92509 7969 ft 275 kts 52°
2026-05-04 19:32 55.58407 11.95263 7959 ft 275 kts 52°
2026-05-04 19:33 55.59520 11.98020 7958 ft 275 kts 52°
2026-05-04 19:33 55.60614 12.00738 7971 ft 276 kts 52°
2026-05-04 19:33 55.61756 12.03571 7983 ft 288 kts 52°
2026-05-04 19:33 55.62916 12.06455 7969 ft 287 kts 52°
2026-05-04 19:34 55.64070 12.09333 7962 ft 286 kts 52°
2026-05-04 19:34 55.65219 12.12204 7967 ft 285 kts 52°
2026-05-04 19:34 55.66364 12.15065 7963 ft 285 kts 52°
2026-05-04 19:34 55.67294 12.18147 7944 ft 288 kts 77°
2026-05-04 19:35 55.67386 12.21666 7980 ft 288 kts 92°
2026-05-04 19:35 55.67460 12.25218 7946 ft 289 kts 77°
2026-05-04 19:35 55.68110 12.28562 7976 ft 288 kts 66°
2026-05-04 19:35 55.68807 12.31876 7875 ft 284 kts 71°
2026-05-04 19:36 55.69268 12.35226 7692 ft 272 kts 78°
2026-05-04 19:36 55.69610 12.38421 7419 ft 264 kts 78°
2026-05-04 19:36 55.69954 12.41587 7148 ft 260 kts 78°
2026-05-04 19:36 55.70309 12.44719 6878 ft 258 kts 77°
2026-05-04 19:37 55.70669 12.47828 6619 ft 258 kts 77°
2026-05-04 19:37 55.71043 12.50964 6360 ft 261 kts 75°
2026-05-04 19:37 55.71644 12.53984 6063 ft 259 kts 62°
2026-05-04 19:37 55.72488 12.56772 5789 ft 255 kts 58°
2026-05-04 19:38 55.73356 12.59509 5506 ft 254 kts 59°
2026-05-04 19:38 55.74194 12.62266 5225 ft 253 kts 60°
2026-05-04 19:38 55.75110 12.64899 4928 ft 249 kts 44°
2026-05-04 19:38 55.76424 12.66772 4678 ft 243 kts 31°
2026-05-04 19:39 55.77781 12.68570 4378 ft 244 kts 37°
2026-05-04 19:39 55.79040 12.70590 4106 ft 243 kts 40°
2026-05-04 19:39 55.80270 12.72626 4013 ft 242 kts 39°
2026-05-04 19:39 55.81516 12.74642 3575 ft 244 kts 39°
2026-05-04 19:40 55.82772 12.76633 3126 ft 239 kts 39°
2026-05-04 19:40 55.83970 12.78523 3008 ft 220 kts 38°
2026-05-04 19:40 55.85066 12.80323 2975 ft 213 kts 44°
2026-05-04 19:40 55.85700 12.82666 2972 ft 218 kts 87°
2026-05-04 19:41 55.85440 12.85338 2979 ft 223 kts 111°
2026-05-04 19:41 55.84505 12.87419 2971 ft 213 kts 154°
2026-05-04 19:41 55.83141 12.87867 2999 ft 194 kts 188°
2026-05-04 19:41 55.81832 12.87706 2976 ft 189 kts 186°
2026-05-04 19:42 55.80517 12.87643 2985 ft 190 kts 185°
2026-05-04 19:42 55.79193 12.87596 2986 ft 191 kts 185°
2026-05-04 19:42 55.77873 12.87552 2971 ft 185 kts 185°
2026-05-04 19:42 55.76671 12.87256 2956 ft 166 kts 203°
2026-05-04 19:43 55.75768 12.86048 3046 ft 169 kts 236°
2026-05-04 19:43 55.75019 12.84406 2984 ft 171 kts 225°
2026-05-04 19:43 55.73975 12.83341 3004 ft 176 kts 208°
2026-05-04 19:43 55.72913 12.82270 2979 ft 174 kts 226°
2026-05-04 19:44 55.72211 12.80556 2831 ft 172 kts 243°
2026-05-04 19:44 55.71502 12.78890 2580 ft 172 kts 223°
2026-05-04 19:44 55.70492 12.77947 2402 ft 156 kts 208°
2026-05-04 19:44 55.69626 12.77002 2167 ft 140 kts 234°
2026-05-04 19:45 55.69172 12.75554 2025 ft 136 kts 249°
2026-05-04 19:45 55.68636 12.74170 1845 ft 140 kts 223°
2026-05-04 19:45 55.67706 12.73662 1698 ft 145 kts 194°
2026-05-04 19:45 55.66781 12.73018 1568 ft 143 kts 225°
2026-05-04 19:46 55.66370 12.72118 1280 ft 141 kts 240°
2026-05-04 19:46 55.65883 12.70684 1075 ft 132 kts 242°
2026-05-04 19:46 55.64945 12.69266 977 ft 135 kts 218°
2026-05-04 19:46 55.64190 12.68233 914 ft 138 kts 224°
2026-05-04 19:47 55.63695 12.67461 760 ft 141 kts 229°
2026-05-04 19:47 55.63016 12.66213 564 ft 143 kts 225°
2026-05-04 19:47 55.62279 12.65070 402 ft 141 kts 224°
2026-05-04 19:47 55.61527 12.63915 146 ft 143 kts 221°
2026-05-04 19:48 55.60810 12.62806 31 ft 129 kts 221°
2026-05-04 19:48 55.60199 12.61867 22 ft 93 kts 221°
2026-05-04 19:48 55.60016 12.61544 23 ft 12 kts 275°
2026-05-04 19:48 55.60040 12.61475 27 ft 1 kts 314°
2026-05-04 19:49 55.60049 12.61460 25 ft 0 kts 316°
2026-05-04 19:50 55.60051 12.61457 25 ft 0 kts 316°
2026-05-04 19:50 55.60091 12.61456 26 ft 14 kts 24°
2026-05-04 19:50 55.60208 12.61627 26 ft 25 kts 41°
2026-05-04 19:51 55.60347 12.61842 27 ft 32 kts 41°
2026-05-04 19:51 55.60547 12.62150 24 ft 44 kts 41°
2026-05-04 19:51 55.60761 12.62393 24 ft 21 kts 18°
2026-05-04 19:51 55.60893 12.62561 23 ft 26 kts 41°
2026-05-04 19:52 55.61005 12.62732 22 ft 20 kts 41°
2026-05-04 19:52 55.61143 12.62943 27 ft 31 kts 41°
2026-05-04 19:52 55.61334 12.63242 32 ft 42 kts 41°
2026-05-04 19:52 55.61511 12.63515 22 ft 0 kts 41°
2026-05-04 19:54 55.61512 12.63517 22 ft 0 kts 40°
2026-05-04 19:54 55.61513 12.63519 22 ft 1 kts 40°
2026-05-04 19:54 55.61569 12.63602 24 ft 30 kts 41°
2026-05-04 19:55 55.61652 12.63730 24 ft 0 kts 41°
2026-05-04 19:55 55.61652 12.63731 24 ft 0 kts 41°
2026-05-04 19:55 55.61653 12.63732 27 ft 0 kts 41°
2026-05-04 19:56 55.61654 12.63734 27 ft 0 kts 41°
2026-05-04 19:56 55.61656 12.63737 27 ft 0 kts 41°
2026-05-04 19:56 55.61661 12.63773 25 ft 13 kts 86°
2026-05-04 19:56 55.61662 12.63785 25 ft 1 kts 82°
2026-05-04 19:57 55.61774 12.63923 27 ft 33 kts 47°
2026-05-04 19:57 55.61923 12.64119 25 ft 20 kts 36°
2026-05-04 19:57 55.61948 12.64354 21 ft 0 kts 78°
2026-05-04 19:58 55.61949 12.64356 21 ft 1 kts 78°
2026-05-04 19:58 55.61992 12.64520 19 ft 18 kts 43°
2026-05-04 19:58 55.62013 12.64544 18 ft 0 kts 31°
2026-05-04 19:59 55.62015 12.64546 18 ft 0 kts 31°
2026-05-04 19:59 55.62016 12.64548 18 ft 0 kts 31°
2026-05-04 20:00 55.62018 12.64550 18 ft 0 kts 30°
2026-05-04 20:00 55.62022 12.64554 18 ft 2 kts 30°
2026-05-04 20:00 55.62067 12.64607 18 ft 26 kts 34°
2026-05-04 20:00 55.62184 12.64745 22 ft 1 kts 33°
2026-05-04 20:01 55.62220 12.64784 21 ft 23 kts 25°
2026-05-04 20:01 55.62270 12.64793 22 ft 0 kts 351°
2026-05-04 20:05 55.62333 12.64784 22 ft 21 kts 358°
2026-05-04 20:05 55.62432 12.64655 21 ft 19 kts 303°
2026-05-04 20:06 55.62502 12.64460 19 ft 19 kts 303°
2026-05-04 20:06 55.62559 12.64309 21 ft 20 kts 303°
2026-05-04 20:06 55.62636 12.64101 22 ft 19 kts 304°
2026-05-04 20:06 55.62672 12.64004 25 ft 1 kts 303°
2026-05-04 20:07 55.62674 12.63998 24 ft 1 kts 303°
2026-05-04 20:07 55.62678 12.63989 23 ft 5 kts 303°
2026-05-04 20:07 55.62752 12.63920 22 ft 14 kts 30°
2026-05-04 20:07 55.62834 12.64079 20 ft 19 kts 65°
2026-05-04 20:08 55.62839 12.64104 22 ft 1 kts 67°
2026-05-04 20:08 55.62857 12.64215 20 ft 1 kts 101°
2026-05-04 20:08 55.62857 12.64223 20 ft 1 kts 90°
2026-05-04 20:08 55.62857 12.64230 20 ft 1 kts 95°
2026-05-04 20:09 55.62857 12.64239 20 ft 1 kts 90°
2026-05-04 20:09 55.62856 12.64247 20 ft 1 kts 93°
2026-05-04 20:09 55.62856 12.64256 20 ft 1 kts 93°
2026-05-04 20:09 55.62856 12.64266 20 ft 0 kts 94°